COSMOS 1275 DEB

Satellite information

Favourite Embed

Satellite Type and Status

DEBRISIN ORBIT

Key statistics

Satellite COSMOS 1275 DEB at a glance.

Uptime

16264

Days in orbit

Revolutions

≈ 13.7

Per day

Orbit

LEO

Low Earth Orbit

Inclination

82.8

Latest

Satellite identification and parameters

Extended collection of information and parameters for COSMOS 1275 DEB.

Object identification

Identified? True

Debris? True

Object name: COSMOS 1275 DEB

International designator: 1981-053R

Object number (NORAD): 12661

Object ID (CCSDS): 12661

Country: COMMONWEALTH OF INDEPENDENT STATES (CIS)

Current information (Y/N): Y

RCS size: SMALL

Orbital parameters

Period: 104.956 minutes

Inclination: 82.8002 deg

SMA: 7370.518 km

Apoapsis: 1079.185 km

Periapsis: 905.582 km

RAAN: 46.1291 deg

Eccentricy: 0.01177689

Argument of periapsis: 9.1994 deg

Mean anomaly: 43.7537 deg

Mean motion: 13.72005063 rev/day

Mean motion (dot): 0.00001253 rev/day2

B* drag term: 0.0012988141 1/REarth

Two-line elements (TLE)

Creation date: Dec. 12, 2025, 10:14 a.m.

Reference frame: TEME

Reference center: EARTH

Epoch: Dec. 12, 2025, 4:35 a.m. UTC

TLE line 0: 0 COSMOS 1275 DEB

TLE line 1: 1 12661U 81053R 25346.19163472 .00001253 00000-0 12988-2 0 9997

TLE line 2: 2 12661 82.8002 46.1291 0117769 9.1994 43.7537 13.72005063204365

Live tracking on map

Real-time ground track for satellite COSMOS 1275 DEB.

In-orbit conjunctions

A list of the most updated potential collisions computed for object COSMOS 1275 DEB.

Target Orbit TCA Probability of collision Miss distance Type
COSMOS 2195 LEO 2025-12-03 10:00:11 0.01538578 28.0 (m) PAYLOAD
COSMOS 1275 DEB LEO 2024-08-03 15:10:23 0.003555566 20.0 (m) DEBRIS

Associated space launch

Navigation satellite providing location information for the Tsiklon-B navigation system

COSMOS 1275 DEB was lifted into orbit during the mission ‘Kosmos-3M | Parus 27’, on board a Kosmos-3M space rocket.

The launch took place on June 4, 1981, 3:41 p.m. from 132/2.

For more information about the launch, click the button.

Launch to space Kosmos-3M | Parus 27
Kosmos-3M | Parus 27

Agency: N/A

Status: Launch Successful

Launch date: June 4, 1981, 3:41 p.m. UTC

Rocket: Kosmos-3M

Launch pad: 132/2

Location: Plesetsk Cosmodrome, Russian Federation

...

Latest news about this satellite

There are no fresh news available about this satellite. Check back as we update our databases every day.


Newsletter sign-up

Weekly statistics, charts and insights to help you stay on top of the space industry.